Flag for Russia Weather past 2 weeks in Syktyvkar, Russia

Now
39 °F

Overcast.


Feels Like: 37 °F
Forecast: 35 / 50 °F
Wind: 3 mph from North

Location: Syktyvkar Airport

Current Time: Sep 17, 2014 at 8:29:08 PM

Latest Report: Sep 17, 2014 at 8:00 PM


Visibility: N/A

Pressure: 30.21 "Hg

Humidity: 70%

Dew point: 30 °F

Location of SyktyvkarLocation

Historic Weather in Syktyvkar — Graph

°F

Syktyvkar temperature yesterday

Maximum temperature yesterday: 46 °F (at 4:00 PM)
Minimum temperature yesterday: 37 °F (at 6:00 AM)
Average temperature yesterday: 41 °F

Past Weeks' High & Low Weather Summary

 TemperatureHumidityPressure
High72 °F (Sep 12, 2:30 PM)100% (Sep 8, 4:30 AM)30.36 "Hg (Sep 8, 4:30 AM)
Low32 °F (Sep 8, 12:30 AM)44% (Sep 14, 3:00 PM)29.62 "Hg (Sep 5, 11:00 PM)
Average49 °F78%30.06 "Hg
* Reported Sep 2 7:00 PM — Sep 17 7:00 PM, Syktyvkar, Weather by CustomWeather, © 2014

Note: Actual official high and low records may vary slightly from our data, if they occured in-between our weather recording intervals... More about our weather records

Advertising

Syktyvkar weather history for previous 24 hours

 ConditionsComfort  
Time TempWeatherWind HumidityBarometerVisibility
7:00 PM
Sep 17
41 °FOvercast.1 mph66%30.18 "HgN/A
6:30 PM41 °FMostly cloudy.3 mph61%30.18 "HgN/A
6:00 PM41 °FMostly cloudy.6 mph66%30.18 "HgN/A
5:30 PM41 °FMostly cloudy.3 mph66%30.18 "HgN/A
5:00 PM41 °FMostly cloudy.6 mph66%30.18 "HgN/A
4:30 PM41 °FMostly cloudy.6 mph66%30.18 "HgN/A
4:00 PM43 °FMostly cloudy.6 mph61%30.18 "HgN/A
3:30 PM43 °FMostly cloudy.8 mph61%30.18 "HgN/A
3:00 PM43 °FMostly cloudy.6 mph61%30.18 "HgN/A
2:30 PM43 °FMostly cloudy.3 mph66%30.18 "HgN/A
2:00 PM39 °FSprinkles. Cloudy.8 mph75%30.18 "Hg6 mi
1:30 PM41 °FMostly cloudy.8 mph61%30.18 "HgN/A
1:00 PM41 °FMostly cloudy.6 mph61%30.18 "HgN/A
12:30 PM41 °FMostly cloudy.8 mph61%30.15 "HgN/A
12:00 PM41 °FMostly cloudy.6 mph66%30.15 "HgN/A
11:30 AM41 °FMostly cloudy.8 mph66%30.15 "HgN/A
11:00 AM41 °FOvercast.8 mph70%30.15 "HgN/A
10:30 AM41 °FOvercast.8 mph70%30.15 "HgN/A
10:00 AM41 °FOvercast.6 mph70%30.15 "HgN/A
9:30 AM39 °FOvercast.8 mph75%30.15 "HgN/A
9:00 AM39 °FOvercast.8 mph81%30.15 "HgN/A
8:30 AM39 °FOvercast.6 mph81%30.12 "HgN/A
8:00 AM39 °FOvercast.6 mph81%30.12 "HgN/A
7:30 AM39 °FOvercast.6 mph81%30.12 "HgN/A
7:00 AM37 °FOvercast.6 mph87%30.12 "HgN/A
6:30 AM37 °FMostly cloudy.3 mph87%30.12 "HgN/A
6:00 AM37 °FMostly cloudy.3 mph87%30.12 "HgN/A
5:30 AM37 °FMostly cloudy.3 mph87%30.12 "HgN/A
5:00 AM37 °FMostly cloudy.3 mph87%30.12 "HgN/A
4:30 AM36 °FMostly cloudy.3 mph93%30.12 "HgN/A
4:00 AM37 °FMostly cloudy.3 mph87%30.12 "HgN/A
3:30 AM37 °FMostly cloudy.6 mph81%30.12 "HgN/A
3:00 AM37 °FMostly cloudy.3 mph81%30.12 "HgN/A
2:30 AM37 °FMostly cloudy.1 mph81%30.12 "HgN/A
2:00 AM37 °FMostly cloudy.3 mph81%30.12 "HgN/A
1:30 AM37 °FMostly cloudy.3 mph81%30.12 "HgN/A
1:00 AM37 °FMostly cloudy.3 mph81%30.12 "HgN/A
12:30 AM37 °FMostly cloudy.3 mph81%30.12 "HgN/A
12:00 AM39 °FMostly cloudy.3 mph75%30.12 "HgN/A
11:30 PM
Sep 16
39 °FMostly cloudy.3 mph75%30.12 "HgN/A
11:00 PM39 °FMostly cloudy.3 mph75%30.12 "HgN/A
10:30 PM39 °FMostly cloudy.3 mph75%30.12 "HgN/A
10:00 PM39 °FOvercast.3 mph75%30.12 "HgN/A
9:30 PM39 °FMostly cloudy.3 mph75%30.12 "HgN/A
9:00 PM39 °FPartly cloudy.3 mph81%30.09 "HgN/A
8:30 PM41 °FMostly cloudy.3 mph76%30.09 "HgN/A
8:00 PM41 °FPartly cloudy.3 mph76%30.09 "HgN/A
Weather by CustomWeather, © 2014

See weather overviewHow to use our weather pages